Probability
0 0 0 0 0 0 0 0 0 0 0 0 0 0 0 0 0 0 0 0 0 0 0 0 0 0 0 0 0 0 0 0 0 0 0 0 0 0
0 0 0 0 0 0 0 0 0 0 0 0 0 0 0 0 0 0 0 0 0 0 0 0 0 0 0 0 0 0 0 0 0 0 0 0 0 0
0 0 0 0 0 0 0 0 0 0 0 0 0 0 0 0 0 0 0 0 0 0 0 0 0 0 0 0 0 0 0 0 0 0 0 0 0 0
0 0 0 0 0 0 0 0 0 0 0 0 0 0 0 0 0 0 0 0 0 0 0 0 0 0 0 0 0 0 0 0 0 0 0 0 0 0
0 0 0 0 0 0 0 0 0 0 0 0 0 0 0 0 0 0 0 0 0 0 0 0 0 0 0 0 0 0 0 0 0 0 0 0 0 0
0 0 0 0 0 0 0 0 0 0 0 0 0 0 0 0 0 0 0 0 0 0 0 0 0 0 0 0 0 0 0 0 0 0 0 0 0 0
0 0 0 0 0 0 0 0 0 0 0 0 0 0 0 0 0 0 0 0 0 0 0 0 0 0 0 0 0 0 0 0 0 0 0 0 0 0
0 0 0 0 0 0 0 0 0 0 0 0 0 0 0 0 0 0 0 0 0 0 0 0 0 0 0 0 0 0 0 0 0 0 0 0 0 0
0 0 0 0 0 0 0 0 0 0 0 0 0 0 0 0 0 0 0 0 0 0 0 0 0 0 0 0 0 0 0 0 0 0 0 0 0 0
0 0 0 0 0 0 0 0 0 0 0 0 0 0 0 0 0 0 0 0 0 0 0 0 0 0 0 0 0 0 0 0 0 0 0 0 0 0
0 0 0 0 0 0 0 0 0 0 0 0 0 0 0 0 0 0 0 0 0 0 0 0 0 0 0 0 0 0 0 0 0 0 0 0 0 0
0 0 0 0 0 0 0 0 0 0 0 0 0 0 0 0 0 0 0 0 0 0 0 0 0 0 0 0 0 0 0 0 0 0 0 0 0 0
0 0 0 0 0 0 0 0 0 0 0 0 0 0 0 0 0 0 0 0 0 0 0 0 0 0 0 0 0 0 0 0 0 0 0 0 0 0
0 0 0 0 0 0 0 0 0 0 0 0 0 0 0 0 0 0 0 0 0 0 0 0 0 0 0 0 0 0 0 0 0 0 0 0 0 0
0 0 0 0 0 0 0 0 0 0 0 0 0 0 0 0 0 0 0 0 0 0 0 0 0 0 0 0 0 0 0 0 0 0 0 0 0 0
0 0 0 0 0 0 0 0 0 0 0 0 0 0 0 0 0 0 0 0 0 0 0 0 0 0 0 0 0 0 0 0 0 0 0 0 0 0
0 0 0 0 0 0 0 0 0 0 0 0 0 0 0 0 0 0 0 0 0 0 0 0 0 0 0 0 0 0 0 0 0 0 0 0 0 0
0 0 0 0 0 0 0 0 0 0 0 0 0 0 0 0 0 0 0 0 0 0 0 0 0 0 0 0 0 0 0 0 0 0 0 0 0 0
0 0 0 0 0 0 0 0 0 0 0 0 0 0 0 0 0 0 0 0 0 0 0 0 0 0 0 0 0 0 0 0 0 0 0 0 0 0
0 0 0 0 0 0 0 0 0 0 0 0 0 0 0 0 0 0 0 0 0 0 0 0 0 0 0 0 0 0 0 0 0 0 0 0 0 0
0 0 0 0 0 0 0 0 0 0 0 0 0 0 0 0 0 0 0 0 0 0 0 0 0 0 0 0 0 0 0 0 0 0 0 0 0 0
0 0 0 0 0 0 0 0 0 0 0 0 0 0 0 0 0 0 0 0 0 0 0 0 0 0 0 0 0 0 0 0 0 0 0 0 0 0
0 0 0 0 0 0 0 0 0 0 0 0 0 0 0 0 0 0 0 0 0 0 0 0 0 0 0 0 0 0 0 0 0 0 0 0 0 0
Wind_Speed
10 8 6 7 5 4 4 5 6 4 4 2 1 1 1 2 6 6 3 7 11 13 14 14 14 15 16 16 15 15 14 13 11 11 10 10 10 11
6 5 4 4 4 3 4 4 4 5 4 4 3 1 1 1 3 4 4 8 11 14 14 15 15 16 16 17 16 15 14 13 11 10 9 10 10 10
1 3 3 0 1 1 3 4 3 4 3 3 1 0 1 1 2 2 2 4 6 12 14 15 15 15 15 15 15 15 14 12 10 9 8 8 8 8
4 5 7 6 4 3 1 4 5 4 4 3 2 1 1 0 2 2 2 2 4 10 14 14 14 14 14 14 13 12 11 11 10 9 7 6 5 6
2 3 3 3 3 2 3 3 2 3 2 3 2 1 1 1 2 3 3 2 1 6 13 14 14 14 13 12 11 10 10 10 9 7 6 5 4 4
9 7 5 1 1 3 3 2 1 2 2 3 2 2 1 2 2 2 3 3 3 3 3 5 9 10 10 10 10 10 9 9 8 7 7 7 7 5
10 8 8 12 10 5 3 1 1 1 2 3 3 2 1 2 2 1 3 4 4 3 4 4 4 4 4 3 5 9 9 9 9 10 9 9 8 7
10 10 10 13 15 17 18 15 12 6 2 2 3 3 2 3 2 2 4 4 3 2 3 4 4 4 3 3 6 12 14 13 11 10 9 8 7 7
9 9 8 10 12 13 19 21 21 21 16 8 6 5 4 3 2 2 3 3 4 3 2 4 4 4 5 6 13 14 15 14 12 10 9 8 7 7
8 7 7 8 9 12 11 11 13 14 14 11 9 7 6 5 5 4 5 7 8 5 5 4 3 3 6 8 13 14 15 14 12 10 9 7 7 7
7 6 7 7 15 16 12 12 12 13 18 23 23 21 21 17 11 6 6 4 5 4 6 3 4 3 4 6 9 11 13 13 11 9 8 6 6 7
7 8 12 15 20 20 12 11 11 10 9 11 14 16 15 16 18 12 6 4 4 4 6 4 3 2 4 4 4 5 7 9 9 8 7 6 6 3
6 7 8 19 22 22 16 10 10 9 9 8 9 9 9 9 9 9 8 6 5 5 5 4 3 3 3 2 2 2 3 3 3 4 5 6 7 5
4 4 8 20 22 20 15 16 16 12 7 7 8 8 8 8 7 7 8 8 8 7 6 5 3 2 1 1 1 1 2 2 1 1 1 4 6 7
1 6 13 17 17 14 18 19 14 8 7 7 8 8 7 6 6 5 6 6 8 8 8 7 5 3 1 1 1 1 1 1 0 1 2 2 3 3
5 10 14 13 13 12 11 10 7 7 7 7 7 6 6 6 6 6 6 5 4 5 7 7 6 4 2 1 0 0 0 2 2 2 3 3 4 4
8 6 5 6 6 6 6 6 6 6 7 7 7 7 7 7 6 6 6 6 5 5 5 5 5 4 3 2 1 1 1 1 2 3 4 4 4 3
8 6 6 6 6 6 5 5 6 6 6 6 6 6 5 4 4 4 5 4 4 4 4 5 5 4 3 1 1 2 2 2 3 3 4 4 4 3
6 5 5 5 4 4 3 3 2 3 3 3 3 3 3 3 4 4 4 4 3 4 4 5 5 5 5 3 4 5 4 4 5 4 4 4 6 7
4 3 4 4 4 4 3 3 3 2 2 2 1 1 2 2 2 3 2 2 2 2 3 3 4 4 4 4 4 4 6 6 6 5 5 5 8 11
2 2 2 2 2 2 2 3 2 3 2 1 1 1 1 1 1 1 2 4 3 1 2 2 3 6 4 3 4 4 4 6 8 6 6 7 7 5
2 2 3 2 2 1 2 2 2 3 2 1 2 2 2 1 2 2 2 2 2 2 2 3 3 3 2 3 5 6 6 5 7 11 11 10 8 8
2 3 3 3 3 3 2 2 3 3 3 3 3 3 3 2 3 3 3 3 3 3 2 2 2 2 3 5 6 6 7 7 6 6 6 10 14 18
Wind_Direction
251 224 230 253 233 207 150 142 145 167 207 205 170 249 192 133 135 127 123 126 127 129 131 130 126 129 128 127 127 126 121 114 107 98 89 80 70 59
243 207 188 225 223 221 150 131 134 141 167 180 192 248 179 100 126 117 130 130 131 128 130 133 134 133 133 132 131 128 124 117 108 102 95 88 78 65
135 26 36 288 130 182 135 135 130 125 142 158 160 202 90 131 107 84 100 101 125 136 139 139 139 140 140 138 137 138 135 127 119 111 105 97 82 64
90 55 28 7 21 7 251 158 139 141 131 145 173 161 109 134 103 121 139 137 135 151 150 148 149 152 151 147 144 143 140 134 129 120 113 103 84 60
45 96 52 1 321 36 17 23 68 116 121 133 150 187 140 92 85 76 68 59 74 166 161 160 162 162 159 155 153 152 149 147 146 142 137 127 101 67
18 28 21 57 182 75 55 34 16 118 136 130 139 183 168 99 93 113 112 84 54 44 131 164 159 161 162 164 159 158 157 154 145 134 123 113 105 91
11 22 25 30 44 87 108 91 93 138 155 148 144 170 144 102 112 114 117 98 55 32 57 36 61 72 76 105 129 130 126 118 112 110 108 101 88 71
12 16 20 24 34 50 66 69 66 62 77 114 132 121 65 41 57 89 115 117 116 28 70 45 33 59 37 83 110 112 109 106 103 98 93 82 69 50
16 16 23 26 34 40 47 49 53 55 58 59 69 78 79 30 8 77 78 81 99 48 65 81 25 49 29 74 97 102 103 98 90 85 77 65 46 23
19 24 32 31 52 57 50 43 42 44 53 59 67 75 80 63 43 53 75 94 79 46 24 96 66 27 45 49 71 84 86 83 81 75 65 46 26 11
9 20 64 50 61 61 54 47 42 38 45 56 57 57 60 60 54 53 54 95 104 53 17 49 69 44 41 43 26 57 70 77 79 68 54 37 30 25
8 12 46 65 66 64 57 53 48 46 51 53 53 47 44 46 50 49 40 52 74 88 17 25 66 47 46 29 32 17 40 56 69 56 45 28 6 16
25 14 37 69 62 57 55 57 64 59 55 54 55 48 41 36 37 43 44 43 51 70 25 26 57 54 57 67 75 35 29 38 46 36 25 9 356 352
55 32 54 65 62 58 55 53 54 52 46 50 51 45 40 32 25 32 43 59 62 69 43 40 58 54 118 150 110 41 17 60 54 27 6 352 349 341
339 117 86 70 61 52 51 52 48 43 47 53 54 47 38 36 24 30 41 60 70 62 51 46 53 41 2 122 113 67 356 320 47 18 359 338 308 301
59 82 75 69 67 58 53 50 45 50 52 53 55 51 40 41 30 19 34 30 66 66 56 50 44 34 360 347 228 220 257 287 326 2 339 298 273 275
84 71 60 61 58 59 58 53 51 48 52 49 42 43 39 33 30 17 29 30 42 31 27 21 16 360 312 282 316 353 3 320 342 357 334 301 284 279
51 46 46 46 50 47 47 49 47 49 45 50 51 48 40 22 31 30 39 34 39 30 18 9 5 357 357 357 150 15 29 358 337 324 316 311 306 302
43 43 35 30 25 24 25 29 32 39 40 42 46 39 32 18 26 33 30 25 24 26 20 9 9 9 16 6 1 36 26 342 319 316 321 313 304 304
31 33 29 21 17 10 6 4 4 7 26 34 24 13 5 355 2 23 13 360 0 5 7 3 7 1 350 345 323 314 329 315 313 313 313 309 298 294
351 357 353 349 347 347 348 353 349 332 346 347 317 293 270 278 305 326 318 317 337 3 323 315 325 334 331 301 272 275 285 303 310 308 311 312 306 293
303 303 303 299 293 280 283 300 309 312 321 295 274 265 259 239 241 244 252 267 267 237 249 271 297 311 288 264 275 288 295 302 305 300 292 278 276 284
276 276 278 282 287 279 260 251 255 270 265 251 256 261 253 235 241 238 241 249 257 256 240 253 264 253 257 271 280 285 291 299 306 307 293 286 284 285